Regional Weather Roundup
Issued by NWS

Home | Current Version | Previous Version | Graphics & Text | Print | Product List | Glossary On
Versions: 1 2 3 4 5 6 7 8 9 10 11 12 13 14 15 16 17 18 19 20 21 22 23 24 25 26 27 28 29 30 31 32 33 34 35 36 37 38 39 40 41 42 43 44 45 46 47 48 49 50
485
ASUS43 KFSD 240302
RWRSD

WEATHER ROUNDUP FOR SOUTH DAKOTA
NATIONAL WEATHER SERVICE SIOUX FALLS SD
1000 PM CDT MON MAY 23 2016

NOTE: "FAIR" INDICATES FEW OR NO CLOUDS BELOW 12,000 FEET WITH NO
SIGNIFICANT WEATHER AND/OR OBSTRUCTIONS TO VISIBILITY.


SDZ001>005-009-010-012>017-240400-
NORTHWEST AND NORTH CENTRAL SOUTH DAKOTA

CITY           SKY/WX    TMP DP  RH WIND       PRES   REMARKS
BUFFALO          N/A     57  36  45 N13       29.70R
FAITH            N/A     62  35  36 NE9       29.71R
MOBRIDGE       CLEAR     62  52  69 SE7       29.66R
$$

SDZ012>016-024>037-041>051-057-063-072>074-240400-
SOUTHWEST AND SOUTH CENTRAL SOUTH DAKOTA

CITY           SKY/WX    TMP DP  RH WIND       PRES   REMARKS
RAPID CTY ARPT CLEAR     58  29  33 W3        29.75R
PIERRE         CLEAR     66  47  50 S7        29.69R
CUSTER         CLEAR     53  23  31 SW3       29.86R
ELLSWORTH AFB  CLEAR     60  29  31 W5        29.74R
PHILIP         MOCLDY    67  37  33 S12       29.70S
PINE RIDGE     CLOUDY    59  37  44 S13       29.82R
WINNER         FAIR      64  49  57 SW5       29.74R
$$

SDZ004>011-016>023-039-040-240400-
NORTHEAST SOUTH DAKOTA

CITY           SKY/WX    TMP DP  RH WIND       PRES   REMARKS
ABERDEEN       CLEAR     64  53  67 S8        29.70R
WATERTOWN      CLOUDY    65  56  72 SE3       29.73S
BROOKINGS      MOCLDY    65  57  75 S7        29.76R
SISSETON         N/A     65  54  67 SW6       29.69R
$$

SDZ017-020-022-023-036>040-048>070-240400-
SOUTHEAST SOUTH DAKOTA

CITY           SKY/WX    TMP DP  RH WIND       PRES   REMARKS
SIOUX FALLS    CLOUDY    65  61  87 S8        29.77R
HURON          CLEAR     64  55  72 SE6       29.71R
MITCHELL       CLOUDY    67  60  78 S6        29.73R
YANKTON        CLOUDY    68  63  83 SE10      29.75R
$$

ABBREVIATIONS USED IN REMARKS
   TC - TEMPERATURE IN CELSIUS
  WCI - WIND CHILL INDEX
   HX - HEAT INDEX
  VSB - VISIBILITY





USA.gov is the U.S. government's official web portal to all federal, state and local government web resources and services.